CSN3460 ZPPP-ZGSZ

Flight info

Callsign CSN3460
Flight time 1h 38m
Altitude 33100
Route LXI A599 POU W7 SAREX
Aircraft A320/M-SDE3FGHIRWYZ/LB1

Departure

Time 2026-04-22 06:00
Airport Kunming Changshui International Airport (ZPPP)

Arrival

Time 2026-04-22 07:39
Airport Shenzhen Bao'an International Airport (ZGSZ)
Time Latitude Longitude Altitude Speed Heading
2026-04-22 05:22 25.10262 102.92862 6916 ft 0 kts 128°
2026-04-22 05:40 25.10263 102.92860 6916 ft 1 kts 128°
2026-04-22 05:40 25.10272 102.92847 6916 ft 3 kts 120°
2026-04-22 05:40 25.10279 102.92828 6916 ft 3 kts 105°
2026-04-22 05:41 25.10282 102.92805 6916 ft 3 kts 89°
2026-04-22 05:41 25.10279 102.92783 6916 ft 3 kts 75°
2026-04-22 05:41 25.10272 102.92762 6916 ft 3 kts 60°
2026-04-22 05:41 25.10261 102.92745 6916 ft 0 kts 49°
2026-04-22 05:45 25.10268 102.92754 6916 ft 5 kts 49°
2026-04-22 05:45 25.10309 102.92796 6916 ft 11 kts 39°
2026-04-22 05:46 25.10396 102.92832 6916 ft 16 kts 355°
2026-04-22 05:46 25.10501 102.92794 6916 ft 15 kts 336°
2026-04-22 05:46 25.10598 102.92744 6916 ft 16 kts 334°
2026-04-22 05:46 25.10693 102.92695 6916 ft 12 kts 345°
2026-04-22 05:47 25.10761 102.92735 6916 ft 11 kts 39°
2026-04-22 05:47 25.10825 102.92791 6916 ft 13 kts 38°
2026-04-22 05:47 25.10905 102.92861 6916 ft 16 kts 38°
2026-04-22 05:47 25.11002 102.92947 6916 ft 19 kts 38°
2026-04-22 05:48 25.11071 102.93016 6916 ft 10 kts 78°
2026-04-22 05:48 25.11034 102.93089 6916 ft 13 kts 129°
2026-04-22 05:48 25.10972 102.93175 6916 ft 16 kts 128°
2026-04-22 05:48 25.10889 102.93289 6916 ft 22 kts 128°
2026-04-22 05:49 25.10797 102.93416 6916 ft 21 kts 128°
2026-04-22 05:49 25.10711 102.93536 6916 ft 19 kts 128°
2026-04-22 05:49 25.10626 102.93654 6916 ft 20 kts 128°
2026-04-22 05:49 25.10541 102.93773 6916 ft 20 kts 128°
2026-04-22 05:50 25.10455 102.93893 6916 ft 20 kts 128°
2026-04-22 05:50 25.10377 102.94001 6916 ft 12 kts 128°
2026-04-22 05:50 25.10318 102.94004 6916 ft 10 kts 213°
2026-04-22 05:50 25.10260 102.93955 6916 ft 11 kts 219°
2026-04-22 05:51 25.10208 102.93922 6916 ft 5 kts 161°
2026-04-22 05:51 25.10178 102.93955 6916 ft 7 kts 129°
2026-04-22 05:51 25.10134 102.94016 6916 ft 14 kts 129°
2026-04-22 05:51 25.10061 102.94107 6916 ft 16 kts 130°
2026-04-22 05:52 25.10003 102.94196 6916 ft 11 kts 104°
2026-04-22 05:52 25.10048 102.94256 6916 ft 12 kts 40°
2026-04-22 05:52 25.10118 102.94320 6916 ft 15 kts 38°
2026-04-22 05:52 25.10212 102.94401 6916 ft 19 kts 38°
2026-04-22 05:53 25.10322 102.94496 6916 ft 20 kts 38°
2026-04-22 05:53 25.10428 102.94586 6916 ft 19 kts 38°
2026-04-22 05:53 25.10534 102.94677 6916 ft 19 kts 38°
2026-04-22 05:53 25.10639 102.94767 6916 ft 19 kts 38°
2026-04-22 05:54 25.10742 102.94856 6916 ft 19 kts 38°
2026-04-22 05:54 25.10847 102.94947 6916 ft 20 kts 38°
2026-04-22 05:54 25.10959 102.95043 6916 ft 21 kts 37°
2026-04-22 05:54 25.11076 102.95142 6916 ft 22 kts 38°
2026-04-22 05:55 25.11198 102.95246 6916 ft 23 kts 38°
2026-04-22 05:55 25.11320 102.95354 6916 ft 22 kts 39°
2026-04-22 05:55 25.11440 102.95459 6916 ft 22 kts 37°
2026-04-22 05:55 25.11561 102.95565 6916 ft 22 kts 38°
2026-04-22 05:56 25.11657 102.95652 6916 ft 11 kts 52°
2026-04-22 05:56 25.11642 102.95713 6916 ft 8 kts 135°
2026-04-22 05:56 25.11606 102.95759 6916 ft 8 kts 130°
2026-04-22 05:56 25.11564 102.95793 6916 ft 8 kts 180°
2026-04-22 05:57 25.11517 102.95767 6916 ft 8 kts 216°
2026-04-22 05:57 25.11490 102.95744 6916 ft 0 kts 218°
2026-04-22 05:59 25.11476 102.95732 6916 ft 13 kts 218°
2026-04-22 05:59 25.11221 102.95510 6916 ft 80 kts 218°
2026-04-22 05:59 25.10854 102.95192 6916 ft 119 kts 218°
2026-04-22 06:00 25.09744 102.94225 6967 ft 177 kts 218°
2026-04-22 06:00 25.09096 102.93660 7349 ft 178 kts 218°
2026-04-22 06:00 25.07794 102.92539 8406 ft 182 kts 219°
2026-04-22 06:00 25.06741 102.91636 8814 ft 201 kts 220°
2026-04-22 06:01 25.05988 102.90989 8918 ft 216 kts 220°
2026-04-22 06:01 25.04303 102.89532 9270 ft 239 kts 219°
2026-04-22 06:01 25.03429 102.88775 9582 ft 246 kts 219°
2026-04-22 06:01 25.02065 102.87592 10156 ft 254 kts 219°
2026-04-22 06:02 25.00659 102.86371 10800 ft 259 kts 219°
2026-04-22 06:02 24.99230 102.85130 11466 ft 264 kts 219°
2026-04-22 06:02 24.97783 102.83871 12128 ft 268 kts 219°
2026-04-22 06:02 24.96292 102.82575 12783 ft 272 kts 219°
2026-04-22 06:03 24.94769 102.81339 13392 ft 277 kts 210°
2026-04-22 06:03 24.92909 102.80855 14038 ft 282 kts 180°
2026-04-22 06:03 24.91015 102.81479 14579 ft 294 kts 151°
2026-04-22 06:03 24.89586 102.83126 15164 ft 301 kts 123°
2026-04-22 06:04 24.88636 102.85202 15612 ft 309 kts 119°
2026-04-22 06:04 24.87658 102.87334 16038 ft 315 kts 121°
2026-04-22 06:04 24.86607 102.89455 16495 ft 319 kts 122°
2026-04-22 06:04 24.85502 102.91574 16980 ft 323 kts 123°
2026-04-22 06:05 24.84342 102.93728 17543 ft 326 kts 124°
2026-04-22 06:05 24.83169 102.95864 18165 ft 330 kts 124°
2026-04-22 06:05 24.81966 102.98027 18849 ft 334 kts 124°
2026-04-22 06:05 24.80738 103.00220 19622 ft 339 kts 124°
2026-04-22 06:06 24.79479 103.02458 20485 ft 344 kts 124°
2026-04-22 06:06 24.78412 103.04795 21341 ft 349 kts 115°
2026-04-22 06:06 24.77526 103.07335 22114 ft 356 kts 113°
2026-04-22 06:06 24.76663 103.09888 22819 ft 361 kts 112°
2026-04-22 06:07 24.75773 103.12507 23497 ft 366 kts 113°
2026-04-22 06:07 24.74859 103.15171 23737 ft 386 kts 113°
2026-04-22 06:07 24.73867 103.18040 23816 ft 409 kts 113°
2026-04-22 06:07 24.72825 103.21046 23894 ft 433 kts 113°
2026-04-22 06:08 24.71726 103.24206 24040 ft 453 kts 112°
2026-04-22 06:08 24.70589 103.27478 24429 ft 466 kts 112°
2026-04-22 06:08 24.69410 103.30867 24927 ft 476 kts 112°
2026-04-22 06:08 24.68227 103.34270 25447 ft 483 kts 112°
2026-04-22 06:09 24.67011 103.37760 25956 ft 490 kts 112°
2026-04-22 06:09 24.65792 103.41261 26446 ft 496 kts 112°
2026-04-22 06:09 24.64556 103.44809 26918 ft 501 kts 112°
2026-04-22 06:09 24.63298 103.48416 27371 ft 506 kts 112°
2026-04-22 06:10 24.62037 103.52021 27824 ft 510 kts 112°
2026-04-22 06:10 24.60765 103.55663 28267 ft 514 kts 112°
2026-04-22 06:10 24.59469 103.59371 28705 ft 519 kts 112°
2026-04-22 06:10 24.58173 103.63076 29130 ft 523 kts 112°
2026-04-22 06:11 24.56872 103.66790 29546 ft 527 kts 112°
2026-04-22 06:11 24.55551 103.70560 29956 ft 531 kts 112°
2026-04-22 06:11 24.54222 103.74375 30391 ft 535 kts 110°
2026-04-22 06:11 24.53159 103.78316 30893 ft 537 kts 105°
2026-04-22 06:12 24.52287 103.82304 31375 ft 539 kts 104°
2026-04-22 06:12 24.51456 103.86305 31858 ft 541 kts 103°
2026-04-22 06:12 24.50615 103.90378 32352 ft 542 kts 103°
2026-04-22 06:12 24.49788 103.94379 32836 ft 542 kts 103°
2026-04-22 06:13 24.48952 103.98395 33337 ft 542 kts 103°
2026-04-22 06:13 24.48108 104.02434 33825 ft 542 kts 103°
2026-04-22 06:13 24.47267 104.06451 34297 ft 542 kts 103°
2026-04-22 06:13 24.46411 104.10523 34759 ft 542 kts 103°
2026-04-22 06:14 24.45562 104.14548 35003 ft 547 kts 103°
2026-04-22 06:14 24.44703 104.18610 35069 ft 554 kts 104°
2026-04-22 06:14 24.42978 104.26744 35090 ft 536 kts 104°
2026-04-22 06:15 24.41288 104.34669 35095 ft 530 kts 104°
2026-04-22 06:15 24.39599 104.42555 35092 ft 542 kts 104°
2026-04-22 06:16 24.38739 104.46561 35068 ft 528 kts 104°
2026-04-22 06:16 24.37908 104.50429 35062 ft 517 kts 104°
2026-04-22 06:16 24.37096 104.54201 35061 ft 502 kts 104°
2026-04-22 06:16 24.36300 104.57895 35065 ft 493 kts 104°
2026-04-22 06:17 24.34693 104.65324 35065 ft 511 kts 104°
2026-04-22 06:17 24.33014 104.73064 35064 ft 528 kts 104°
2026-04-22 06:18 24.31320 104.80856 35065 ft 526 kts 104°
2026-04-22 06:18 24.29608 104.88711 35060 ft 518 kts 104°
2026-04-22 06:19 24.27923 104.96418 35038 ft 526 kts 104°
2026-04-22 06:19 24.27073 105.00299 35033 ft 510 kts 104°
2026-04-22 06:19 24.26257 105.04023 35032 ft 499 kts 104°
2026-04-22 06:20 24.25458 105.07661 35031 ft 486 kts 104°
2026-04-22 06:20 24.24673 105.11231 35036 ft 487 kts 104°
2026-04-22 06:20 24.23051 105.18591 35035 ft 505 kts 104°
2026-04-22 06:21 24.21288 105.26194 35035 ft 523 kts 105°
2026-04-22 06:21 24.19657 105.32751 35031 ft 521 kts 105°
2026-04-22 06:22 24.18729 105.36507 35684 ft 492 kts 105°
2026-04-22 06:22 24.17853 105.40066 35588 ft 489 kts 106°
2026-04-22 06:22 24.16966 105.43664 35227 ft 483 kts 106°
2026-04-22 06:22 24.16101 105.47179 35130 ft 474 kts 106°
2026-04-22 06:23 24.14382 105.54171 35098 ft 481 kts 106°
2026-04-22 06:23 24.12639 105.61275 35096 ft 481 kts 105°
2026-04-22 06:24 24.10074 105.71883 35096 ft 488 kts 104°
2026-04-22 06:25 24.08586 105.79207 35096 ft 494 kts 103°
2026-04-22 06:25 24.07130 105.86579 35095 ft 499 kts 103°
2026-04-22 06:26 24.05657 105.94028 35096 ft 499 kts 103°
2026-04-22 06:26 24.04189 106.01441 35096 ft 499 kts 103°
2026-04-22 06:27 24.02721 106.08840 35096 ft 499 kts 103°
2026-04-22 06:27 24.01241 106.16278 35096 ft 499 kts 103°
2026-04-22 06:28 23.99774 106.23641 35096 ft 499 kts 103°
2026-04-22 06:28 23.98286 106.31087 35096 ft 499 kts 103°
2026-04-22 06:29 23.96806 106.38476 35096 ft 499 kts 103°
2026-04-22 06:29 23.95321 106.45873 35096 ft 499 kts 103°
2026-04-22 06:30 23.93835 106.53254 35096 ft 499 kts 103°
2026-04-22 06:30 23.92359 106.60696 35094 ft 499 kts 100°
2026-04-22 06:31 23.91682 106.68227 35096 ft 499 kts 94°
2026-04-22 06:31 23.91212 106.75790 35096 ft 499 kts 94°
2026-04-22 06:32 23.90742 106.83324 35096 ft 499 kts 94°
2026-04-22 06:32 23.90259 106.90930 35096 ft 499 kts 94°
2026-04-22 06:33 23.89772 106.98472 35096 ft 499 kts 94°
2026-04-22 06:33 23.89279 107.06022 35096 ft 499 kts 94°
2026-04-22 06:34 23.88778 107.13597 35096 ft 499 kts 94°
2026-04-22 06:34 23.88272 107.21176 35096 ft 499 kts 94°
2026-04-22 06:35 23.87760 107.28755 35096 ft 499 kts 94°
2026-04-22 06:35 23.87247 107.36297 35096 ft 499 kts 94°
2026-04-22 06:36 23.86726 107.43883 35096 ft 499 kts 94°
2026-04-22 06:36 23.86203 107.51442 35096 ft 499 kts 94°
2026-04-22 06:37 23.85675 107.59009 35096 ft 499 kts 95°
2026-04-22 06:37 23.85144 107.66573 35096 ft 499 kts 95°
2026-04-22 06:38 23.84608 107.74137 35096 ft 499 kts 95°
2026-04-22 06:38 23.84072 107.81655 35096 ft 499 kts 95°
2026-04-22 06:39 23.83573 107.89228 35096 ft 499 kts 94°
2026-04-22 06:39 23.83159 107.96813 35096 ft 500 kts 93°
2026-04-22 06:40 23.82758 108.04384 35096 ft 500 kts 93°
2026-04-22 06:40 23.82361 108.11959 35096 ft 500 kts 93°
2026-04-22 06:41 23.81956 108.19497 35096 ft 500 kts 94°
2026-04-22 06:41 23.81524 108.27066 35096 ft 500 kts 94°
2026-04-22 06:42 23.81092 108.34655 35096 ft 500 kts 94°
2026-04-22 06:42 23.80662 108.42221 35096 ft 500 kts 94°
2026-04-22 06:43 23.80232 108.49796 35096 ft 500 kts 94°
2026-04-22 06:43 23.79803 108.57329 35096 ft 500 kts 94°
2026-04-22 06:44 23.79370 108.64913 35096 ft 500 kts 94°
2026-04-22 06:44 23.78935 108.72482 35096 ft 500 kts 94°
2026-04-22 06:45 23.78499 108.80033 35096 ft 500 kts 94°
2026-04-22 06:45 23.78057 108.87631 35096 ft 500 kts 94°
2026-04-22 06:46 23.77614 108.95188 35096 ft 500 kts 94°
2026-04-22 06:46 23.77166 109.02777 35096 ft 500 kts 94°
2026-04-22 06:47 23.76717 109.10328 35096 ft 500 kts 94°
2026-04-22 06:47 23.76003 109.17860 35096 ft 499 kts 102°
2026-04-22 06:48 23.74502 109.25224 35096 ft 499 kts 103°
2026-04-22 06:48 23.72944 109.32610 35096 ft 499 kts 103°
2026-04-22 06:49 23.71401 109.40000 35096 ft 499 kts 103°
2026-04-22 06:49 23.69874 109.47369 35096 ft 499 kts 103°
2026-04-22 06:50 23.68351 109.54764 35096 ft 499 kts 103°
2026-04-22 06:50 23.66833 109.62158 35096 ft 499 kts 103°
2026-04-22 06:51 23.65552 109.68294 35096 ft 499 kts 103°
2026-04-22 06:51 23.63759 109.76882 35096 ft 499 kts 103°
2026-04-22 06:52 23.62477 109.83031 35096 ft 499 kts 103°
2026-04-22 06:52 23.60688 109.91636 35096 ft 499 kts 103°
2026-04-22 06:53 23.59414 109.97765 35096 ft 499 kts 103°
2026-04-22 06:53 23.57875 110.05166 35096 ft 499 kts 103°
2026-04-22 06:54 23.56336 110.12560 35096 ft 499 kts 103°
2026-04-22 06:54 23.54808 110.19894 35096 ft 499 kts 103°
2026-04-22 06:55 23.53270 110.27262 35096 ft 499 kts 103°
2026-04-22 06:55 23.51720 110.34672 35096 ft 499 kts 103°
2026-04-22 06:56 23.50194 110.42023 35096 ft 499 kts 103°
2026-04-22 06:56 23.48682 110.49390 35096 ft 499 kts 103°
2026-04-22 06:57 23.47171 110.56771 35096 ft 499 kts 103°
2026-04-22 06:57 23.45666 110.64127 35096 ft 499 kts 103°
2026-04-22 06:58 23.44159 110.71496 35096 ft 499 kts 103°
2026-04-22 06:58 23.42603 110.78902 35096 ft 499 kts 103°
2026-04-22 06:59 23.41049 110.86235 35096 ft 499 kts 103°
2026-04-22 06:59 23.39489 110.93599 35003 ft 498 kts 103°
2026-04-22 06:59 23.38722 110.97223 34754 ft 487 kts 103°
2026-04-22 07:00 23.37965 111.00803 34501 ft 478 kts 103°
2026-04-22 07:00 23.37220 111.04318 34252 ft 477 kts 103°
2026-04-22 07:00 23.36479 111.07817 33894 ft 482 kts 103°
2026-04-22 07:00 23.35724 111.11375 33532 ft 479 kts 103°
2026-04-22 07:01 23.34975 111.14907 33131 ft 481 kts 103°
2026-04-22 07:01 23.34234 111.18463 32824 ft 481 kts 103°
2026-04-22 07:01 23.33497 111.22044 31864 ft 489 kts 103°
2026-04-22 07:01 23.32753 111.25671 31144 ft 488 kts 103°
2026-04-22 07:02 23.32029 111.29210 30994 ft 473 kts 103°
2026-04-22 07:02 23.31316 111.32692 30647 ft 468 kts 103°
2026-04-22 07:02 23.30621 111.36089 30296 ft 466 kts 103°
2026-04-22 07:02 23.29917 111.39524 29944 ft 463 kts 103°
2026-04-22 07:03 23.29216 111.42942 29593 ft 461 kts 103°
2026-04-22 07:03 23.28520 111.46337 29243 ft 459 kts 103°
2026-04-22 07:03 23.27826 111.49719 28802 ft 457 kts 103°
2026-04-22 07:03 23.27135 111.53079 28348 ft 453 kts 103°
2026-04-22 07:04 23.26443 111.56408 27900 ft 449 kts 103°
2026-04-22 07:04 23.25754 111.59717 27454 ft 446 kts 103°
2026-04-22 07:04 23.25072 111.62990 27014 ft 443 kts 103°
2026-04-22 07:04 23.24392 111.66254 26575 ft 441 kts 103°
2026-04-22 07:05 23.23717 111.69494 26139 ft 438 kts 103°
2026-04-22 07:05 23.23046 111.72714 25706 ft 435 kts 103°
2026-04-22 07:05 23.22379 111.75911 25276 ft 432 kts 103°
2026-04-22 07:05 23.21724 111.79053 24854 ft 429 kts 103°
2026-04-22 07:06 23.21065 111.82214 24429 ft 427 kts 103°
2026-04-22 07:06 23.20410 111.85351 24008 ft 424 kts 103°
2026-04-22 07:06 23.19759 111.88469 23589 ft 422 kts 103°
2026-04-22 07:06 23.19111 111.91567 23174 ft 419 kts 103°
2026-04-22 07:07 23.18462 111.94666 22758 ft 417 kts 103°
2026-04-22 07:07 23.17826 111.97703 22350 ft 414 kts 103°
2026-04-22 07:07 23.17185 112.00763 21939 ft 411 kts 103°
2026-04-22 07:07 23.16556 112.03759 21537 ft 409 kts 103°
2026-04-22 07:08 23.15921 112.06779 21132 ft 406 kts 103°
2026-04-22 07:08 23.15295 112.09753 20732 ft 404 kts 103°
2026-04-22 07:08 23.14674 112.12704 20336 ft 401 kts 103°
2026-04-22 07:08 23.14047 112.15677 19937 ft 399 kts 103°
2026-04-22 07:09 23.13431 112.18594 19545 ft 396 kts 104°
2026-04-22 07:09 23.12819 112.21493 19153 ft 394 kts 104°
2026-04-22 07:09 23.12206 112.24389 18752 ft 392 kts 104°
2026-04-22 07:09 23.11601 112.27245 18354 ft 389 kts 104°
2026-04-22 07:10 23.10992 112.30122 17951 ft 387 kts 104°
2026-04-22 07:10 23.10387 112.32971 17549 ft 385 kts 104°
2026-04-22 07:10 23.09793 112.35768 17151 ft 382 kts 104°
2026-04-22 07:10 23.09199 112.38566 16751 ft 380 kts 104°
2026-04-22 07:11 23.08603 112.41365 16349 ft 378 kts 104°
2026-04-22 07:11 23.08014 112.44128 15949 ft 375 kts 104°
2026-04-22 07:11 23.07214 112.46787 15677 ft 371 kts 116°
2026-04-22 07:11 23.05799 112.49122 15424 ft 367 kts 134°
2026-04-22 07:12 23.03878 112.50878 15181 ft 362 kts 148°
2026-04-22 07:12 23.01786 112.52395 14939 ft 360 kts 149°
2026-04-22 07:12 22.99709 112.53860 14832 ft 358 kts 150°
2026-04-22 07:12 22.97601 112.55342 14805 ft 359 kts 150°
2026-04-22 07:13 22.95517 112.56808 14798 ft 359 kts 150°
2026-04-22 07:13 22.93430 112.58279 14796 ft 359 kts 150°
2026-04-22 07:13 22.91322 112.59765 14796 ft 359 kts 150°
2026-04-22 07:13 22.89240 112.61234 14796 ft 359 kts 150°
2026-04-22 07:14 22.87141 112.62715 14796 ft 359 kts 150°
2026-04-22 07:14 22.85034 112.64202 14796 ft 359 kts 150°
2026-04-22 07:14 22.82955 112.65669 14796 ft 359 kts 150°
2026-04-22 07:14 22.80855 112.67151 14796 ft 359 kts 150°
2026-04-22 07:15 22.78755 112.68632 14796 ft 359 kts 150°
2026-04-22 07:15 22.76675 112.70099 14796 ft 359 kts 150°
2026-04-22 07:15 22.74575 112.71579 14796 ft 359 kts 150°
2026-04-22 07:15 22.72502 112.73040 14796 ft 359 kts 150°
2026-04-22 07:16 22.70399 112.74522 14796 ft 359 kts 150°
2026-04-22 07:16 22.68293 112.76004 14796 ft 359 kts 150°
2026-04-22 07:16 22.66223 112.77462 14789 ft 359 kts 150°
2026-04-22 07:16 22.64100 112.78956 14548 ft 359 kts 150°
2026-04-22 07:17 22.62034 112.80410 14300 ft 356 kts 150°
2026-04-22 07:17 22.59965 112.81865 14050 ft 355 kts 150°
2026-04-22 07:17 22.57898 112.83318 13800 ft 354 kts 150°
2026-04-22 07:17 22.55821 112.84777 13547 ft 352 kts 150°
2026-04-22 07:18 22.53779 112.86211 13298 ft 351 kts 150°
2026-04-22 07:18 22.51725 112.87645 13049 ft 357 kts 149°
2026-04-22 07:18 22.49643 112.89097 12796 ft 352 kts 149°
2026-04-22 07:18 22.47619 112.90520 12548 ft 348 kts 148°
2026-04-22 07:19 22.45571 112.91961 12295 ft 347 kts 148°
2026-04-22 07:19 22.43563 112.93371 12045 ft 345 kts 148°
2026-04-22 07:19 22.41545 112.94788 11794 ft 344 kts 149°
2026-04-22 07:19 22.39620 112.96287 11541 ft 344 kts 139°
2026-04-22 07:20 22.38053 112.98224 11290 ft 345 kts 125°
2026-04-22 07:20 22.37128 113.00578 11043 ft 340 kts 107°
2026-04-22 07:20 22.36817 113.03069 10794 ft 332 kts 94°
2026-04-22 07:20 22.36938 113.05554 10540 ft 324 kts 85°
2026-04-22 07:21 22.37350 113.07888 10291 ft 316 kts 77°
2026-04-22 07:21 22.38013 113.10157 10040 ft 313 kts 73°
2026-04-22 07:21 22.38742 113.12353 9791 ft 312 kts 72°
2026-04-22 07:21 22.39477 113.14546 9541 ft 310 kts 72°
2026-04-22 07:22 22.40208 113.16733 9291 ft 309 kts 72°
2026-04-22 07:22 22.40929 113.18907 9042 ft 309 kts 72°
2026-04-22 07:22 22.41651 113.21087 8791 ft 307 kts 72°
2026-04-22 07:22 22.42364 113.23245 8541 ft 306 kts 72°
2026-04-22 07:23 22.43074 113.25397 8291 ft 304 kts 72°
2026-04-22 07:23 22.43789 113.27565 8039 ft 304 kts 72°
2026-04-22 07:23 22.44488 113.29690 7791 ft 302 kts 72°
2026-04-22 07:23 22.45199 113.31850 7538 ft 301 kts 72°
2026-04-22 07:24 22.45894 113.33963 7289 ft 300 kts 72°
2026-04-22 07:24 22.46587 113.36074 7039 ft 299 kts 72°
2026-04-22 07:24 22.47279 113.38181 6789 ft 297 kts 72°
2026-04-22 07:24 22.47967 113.40277 6540 ft 296 kts 72°
2026-04-22 07:25 22.48661 113.42390 6287 ft 295 kts 72°
2026-04-22 07:25 22.49341 113.44466 6038 ft 294 kts 72°
2026-04-22 07:25 22.50018 113.46532 5788 ft 291 kts 72°
2026-04-22 07:25 22.50687 113.48570 5531 ft 279 kts 72°
2026-04-22 07:26 22.51316 113.50489 5279 ft 268 kts 72°
2026-04-22 07:26 22.51927 113.52341 5027 ft 257 kts 73°
2026-04-22 07:26 22.52589 113.54085 4922 ft 242 kts 64°
2026-04-22 07:26 22.53678 113.55467 4857 ft 244 kts 36°
2026-04-22 07:27 22.55249 113.56087 4821 ft 244 kts
2026-04-22 07:27 22.56951 113.56248 4761 ft 245 kts
2026-04-22 07:27 22.58659 113.56349 4666 ft 244 kts
2026-04-22 07:27 22.60351 113.56436 4521 ft 243 kts
2026-04-22 07:28 22.63713 113.56592 4275 ft 242 kts
2026-04-22 07:28 22.65410 113.56663 4148 ft 243 kts
2026-04-22 07:28 22.67089 113.56734 4024 ft 242 kts
2026-04-22 07:29 22.68756 113.56806 3931 ft 241 kts
2026-04-22 07:29 22.70427 113.56877 3908 ft 241 kts
2026-04-22 07:29 22.72115 113.56946 3869 ft 242 kts
2026-04-22 07:29 22.73796 113.56972 3813 ft 242 kts 355°
2026-04-22 07:30 22.75459 113.56692 3772 ft 242 kts 349°
2026-04-22 07:30 22.77129 113.56353 3721 ft 242 kts 349°
2026-04-22 07:30 22.78767 113.55994 3646 ft 241 kts 346°
2026-04-22 07:30 22.80419 113.55714 3558 ft 241 kts
2026-04-22 07:31 22.81986 113.56214 3482 ft 231 kts 36°
2026-04-22 07:31 22.83143 113.57315 3403 ft 215 kts 48°
2026-04-22 07:31 22.84161 113.58476 3336 ft 211 kts 51°
2026-04-22 07:31 22.85133 113.59647 3264 ft 210 kts 53°
2026-04-22 07:32 22.86105 113.60844 3181 ft 209 kts 53°
2026-04-22 07:32 22.87039 113.62008 3057 ft 205 kts 54°
2026-04-22 07:32 22.87797 113.63272 3001 ft 197 kts 75°
2026-04-22 07:32 22.87876 113.64704 2995 ft 186 kts 111°
2026-04-22 07:33 22.87154 113.65798 3002 ft 178 kts 148°
2026-04-22 07:33 22.86069 113.66442 3006 ft 177 kts 153°
2026-04-22 07:33 22.85002 113.67069 3003 ft 177 kts 153°
2026-04-22 07:33 22.83914 113.67692 3000 ft 177 kts 154°
2026-04-22 07:34 22.82822 113.68308 3000 ft 177 kts 154°
2026-04-22 07:34 22.81729 113.68919 3000 ft 177 kts 154°
2026-04-22 07:34 22.80637 113.69526 3000 ft 177 kts 154°
2026-04-22 07:34 22.79541 113.70132 2959 ft 178 kts 155°
2026-04-22 07:35 22.78447 113.70737 2719 ft 175 kts 155°
2026-04-22 07:35 22.77371 113.71330 2476 ft 169 kts 155°
2026-04-22 07:35 22.76357 113.71889 2248 ft 159 kts 155°
2026-04-22 07:35 22.75397 113.72417 2037 ft 152 kts 155°
2026-04-22 07:36 22.74462 113.72931 1835 ft 147 kts 155°
2026-04-22 07:36 22.73611 113.73400 1633 ft 129 kts 155°
2026-04-22 07:36 22.72811 113.73839 1486 ft 127 kts 155°
2026-04-22 07:36 22.72026 113.74271 1331 ft 127 kts 155°
2026-04-22 07:37 22.71252 113.74696 1165 ft 126 kts 155°
2026-04-22 07:37 22.70473 113.75124 1007 ft 125 kts 155°
2026-04-22 07:37 22.69695 113.75551 846 ft 125 kts 155°
2026-04-22 07:37 22.68919 113.75977 686 ft 125 kts 154°
2026-04-22 07:38 22.68146 113.76402 526 ft 124 kts 154°
2026-04-22 07:38 22.67376 113.76825 367 ft 124 kts 153°
2026-04-22 07:38 22.66609 113.77247 212 ft 124 kts 153°
2026-04-22 07:38 22.65845 113.77669 69 ft 123 kts 153°
2026-04-22 07:39 22.65136 113.78053 28 ft 95 kts 153°
2026-04-22 07:39 22.64705 113.78289 28 ft 44 kts 153°
2026-04-22 07:39 22.64510 113.78408 28 ft 29 kts 135°
2026-04-22 07:39 22.64411 113.78551 28 ft 16 kts 123°
2026-04-22 07:40 22.64366 113.78643 28 ft 11 kts 82°
2026-04-22 07:40 22.64426 113.78659 28 ft 10 kts 334°
2026-04-22 07:40 22.64488 113.78627 28 ft 10 kts 334°
2026-04-22 07:40 22.64546 113.78596 28 ft 9 kts 334°
2026-04-22 07:41 22.64601 113.78568 28 ft 8 kts 334°
2026-04-22 07:41 22.64652 113.78540 28 ft 9 kts 333°
2026-04-22 07:41 22.64735 113.78495 28 ft 19 kts 333°
2026-04-22 07:41 22.64855 113.78429 28 ft 19 kts 333°
2026-04-22 07:42 22.64970 113.78366 28 ft 18 kts 333°
2026-04-22 07:42 22.65082 113.78304 28 ft 18 kts 333°
2026-04-22 07:42 22.65201 113.78240 28 ft 19 kts 333°
2026-04-22 07:42 22.65322 113.78175 28 ft 19 kts 333°
2026-04-22 07:43 22.65442 113.78105 28 ft 20 kts 331°
2026-04-22 07:43 22.65565 113.78038 28 ft 20 kts 334°
2026-04-22 07:43 22.65690 113.77971 28 ft 20 kts 333°
2026-04-22 07:43 22.65774 113.77925 28 ft 20 kts 333°
2026-04-22 07:44 22.65941 113.77835 28 ft 20 kts 333°
2026-04-22 07:44 22.66020 113.77808 28 ft 17 kts
2026-04-22 07:44 22.66131 113.77830 28 ft 16 kts 13°
2026-04-22 07:44 22.66201 113.77915 28 ft 16 kts 63°
2026-04-22 07:45 22.66258 113.78036 28 ft 20 kts 63°
2026-04-22 07:45 22.66324 113.78177 28 ft 21 kts 63°
2026-04-22 07:45 22.66372 113.78287 28 ft 9 kts 87°
2026-04-22 07:45 22.66324 113.78332 28 ft 12 kts 153°
2026-04-22 07:46 22.66229 113.78383 28 ft 19 kts 153°
2026-04-22 07:46 22.66092 113.78457 28 ft 26 kts 153°
2026-04-22 07:46 22.65934 113.78543 28 ft 26 kts 153°
2026-04-22 07:46 22.65777 113.78629 28 ft 26 kts 153°
2026-04-22 07:47 22.65619 113.78718 28 ft 25 kts 153°
2026-04-22 07:47 22.65465 113.78803 28 ft 21 kts 153°
2026-04-22 07:47 22.65387 113.78846 28 ft 7 kts 153°
2026-04-22 07:47 22.65336 113.78873 28 ft 12 kts 153°
2026-04-22 07:48 22.65219 113.78936 27 ft 25 kts 153°
2026-04-22 07:48 22.65032 113.79036 28 ft 29 kts 154°
2026-04-22 07:48 22.64846 113.79134 28 ft 28 kts 155°
2026-04-22 07:48 22.64670 113.79226 28 ft 28 kts 153°
2026-04-22 07:49 22.64500 113.79321 28 ft 28 kts 153°
2026-04-22 07:49 22.64329 113.79414 28 ft 27 kts 153°
2026-04-22 07:49 22.64160 113.79506 28 ft 27 kts 153°
2026-04-22 07:49 22.64086 113.79546 28 ft 8 kts 153°
2026-04-22 07:50 22.64038 113.79572 28 ft 7 kts 152°
2026-04-22 07:50 22.63995 113.79597 28 ft 7 kts 152°
2026-04-22 07:50 22.63956 113.79619 28 ft 6 kts 152°
2026-04-22 07:50 22.63908 113.79647 28 ft 10 kts 152°
2026-04-22 07:51 22.63865 113.79677 28 ft 5 kts 116°
2026-04-22 07:51 22.63878 113.79726 28 ft 9 kts 59°
2026-04-22 07:51 22.63899 113.79764 28 ft 1 kts 65°
2026-04-22 07:51 22.63894 113.79782 28 ft 4 kts 132°
2026-04-22 07:52 22.63860 113.79803 28 ft 7 kts 122°
2026-04-22 07:52 22.63898 113.79833 28 ft 7 kts
2026-04-22 07:52 22.63936 113.79837 28 ft 5 kts 11°
2026-04-22 07:52 22.63942 113.79839 28 ft 0 kts 17°
2026-04-22 07:55 22.63943 113.79839 28 ft 0 kts 17°
2026-04-22 08:06 22.63944 113.79839 28 ft 0 kts 17°
2026-04-22 08:17 22.63945 113.79839 28 ft 0 kts 17°
2026-04-22 08:18 22.63945 113.79840 28 ft 0 kts 17°
2026-04-22 08:27 22.63946 113.79840 28 ft 0 kts 17°